Regional Weather Roundup
Issued by NWS

Home | Current Version | Previous Version | Graphics & Text | Print | Product List | Glossary On
Versions: 1 2 3 4 5 6 7 8 9 10 11 12 13 14 15 16 17 18 19 20 21 22 23 24 25 26 27 28 29 30 31 32 33 34 35 36 37 38 39 40 41 42 43 44 45 46 47 48 49 50
000
ASUS45 KTFX 071810
RWRMT
MONTANA REGIONAL WEATHER ROUNDUP
NATIONAL WEATHER SERVICE GREAT FALLS MT
1100 AM MST SUN FEB 07 2016

NOTE: "FAIR" INDICATES FEW OR NO CLOUDS BELOW 12000 FEET WITH NO
SIGNIFICANT WEATHER AND/OR OBSTRUCTIONS TO VISIBILITY.

MTZ001>007-043-071900-
WEST OF THE DIVIDE

CITY           SKY/WX    TMP DP  RH WIND       PRES   REMARKS
KALISPELL      MOSUNNY   25  21  85 CALM      30.58R
MISSOULA       MOSUNNY   27  20  75 CALM      30.61R
BUTTE          SUNNY     18  10  71 CALM      30.49S
MULLAN PASS    SUNNY     26  20  77 VRB3      30.48R
ANACONDA         N/A     30  16  55 CALM      30.52S
DEER LODGE       N/A     28  18  64 NW3       30.54S
HAMILTON         N/A     34  19  55 NE3       30.57S
LIBBY            N/A     30  21  69 CALM      30.62S
PLAINS           N/A     32  24  72 CALM      30.57S
$$

MTZ008-052>055-071900-
SOUTHWEST MONTANA

CITY           SKY/WX    TMP DP  RH WIND       PRES   REMARKS
BOZEMAN        SUNNY     23  14  68 NE5       30.52R
DILLON         SUNNY     33  18  53 S14       30.48S WCI  23
ENNIS          SUNNY     36   9  32 VRB5      30.54R
TWIN BRIDGES     N/A     27  14  57 SE2       30.43R
$$

MTZ009-010-012-014-046-048-049-054-071900-
EAST SLOPES AND CENTRAL MONTANA

CITY           SKY/WX    TMP DP  RH WIND       PRES   REMARKS
CUT BANK       SUNNY     37  12  35 W13       30.44S WCI  29
GREAT FALLS    SUNNY     38  17  42 SW12      30.47S WCI  30
MALMSTROM AFB  SUNNY     36  16  44 W13       30.49R WCI  28
HELENA         SUNNY     37  19  48 W15       30.50S WCI  28
CHOTEAU          N/A     39   7  26 NW10      30.47R
CONRAD           N/A     40  11  30 W8        30.43R
$$

MTZ011-013-016-021-045-047-050-051-071900-
NORTH CENTRAL MONTANA

CITY           SKY/WX    TMP DP  RH WIND       PRES   REMARKS
HAVRE          SUNNY     37  15  40 NW15      30.45R WCI  28
LEWISTOWN      CLOUDY    33  15  47 NW7       30.44R WCI  27
N BAR RANCH      N/A     30  10  43 NW23G31   30.41S WCI  17
CHINOOK          N/A     37  12  35 NW16G25   30.44R WCI  28
$$

MTZ017>020-022>027-061-062-071900-
NORTHEAST MONTANA

CITY           SKY/WX    TMP DP  RH WIND       PRES   REMARKS
GLASGOW        SUNNY     32  20  61 NW29G36   30.31R WCI  18
JORDAN           N/A     35  18  49 NW29      30.35R WCI  22
SIDNEY         SUNNY     36  12  38 NW32G49   30.18R WCI  22
WOLF POINT     SUNNY     36  20  52 NW26G36   30.29R WCI  24
MALTA            N/A    N/A N/A N/A MISG      30.33
PLENTYWOOD       N/A     30  18  59 NW32G45   30.13R WCI  15
POPLAR           N/A     34  18  51 NW25G33   30.25R WCI  21
SCOBEY           N/A     32  14  47 W26       30.18R WCI  18
$$

MTZ028>42-056>058-071900-
SOUTHCENTRAL AND SOUTHEAST MONTANA

CITY           SKY/WX    TMP DP  RH WIND       PRES   REMARKS
BAKER          MOSUNNY   34  14  43 NW38G53   30.20R WCI  19
BILLINGS       CLOUDY    39  11  31 NW17G31   30.44R WCI  30
LIVINGSTON     SUNNY     38  14  37 W16G23    30.43F WCI  29
MILES CITY     SUNNY     38  14  37 NW37G46   30.32R WCI  25
FORSYTH          N/A     37  12  35 NW25G35   30.37S WCI  26
LAUREL           N/A     39  10  30 NW13      30.39R WCI  31
ROUNDUP          N/A     37   6  27 W17       30.31R WCI  27
$$

REGIONAL REPORTS...DAKOTAS

CITY           SKY/WX    TMP DP  RH WIND       PRES   REMARKS
WILLISTON      MOSUNNY   33  19  56 NW36G46   30.13R WCI  18
MINOT          FLURRIES  29  15  56 NW39G49   29.95R WCI  12
DICKINSON      CLOUDY    31  16  54 NW32G47   30.05R WCI  16
BEACH            N/A     32  12  43 NW43G55   30.19R WCI  15
CROSBY         CLOUDY    28  23  80 NW36G49   30.10R WCI  12
TIOGA          FLURRIES  28  25  86 NW32G46   30.08R WCI  12
WATFORD CITY   PTSUNNY   30  18  59 NW33G46   30.12R WCI  14
BISMARCK       CLOUDY    33  18  53 NW38G53   29.94R WCI  18
GRAND FORKS    CLOUDY    26  19  74 N29G37    29.71R WCI  10
FARGO          LGT SNOW  33  29  85 N22       29.68R FOG     WCI  21
BUFFALO SD       N/A     37  13  37 NW56G72   30.03R WCI  21
RAPID CITY     SUNNY     39   8  27 NW52G66   30.16R WCI  24
$$

REGIONAL REPORTS...WYOMING/IDAHO/WASHINGTON

CITY           SKY/WX    TMP DP  RH WIND       PRES   REMARKS
GILLETTE       MOSUNNY   32  12  43 NW32G40   30.33R WCI  17
SHERIDAN       CLOUDY    34  13  41 NW32G40   30.41R WCI  20
BUFFALO WY     CLOUDY    32  12  43 NW30G48   30.35R WCI  18
CODY           CLOUDY    34  16  47 N17G23    30.41R WCI  23
YELLOWSTONE LA   N/A     23  12  62 CALM      30.46R
IDAHO FALLS    CLOUDY    23  21  92 NW12      30.59R FOG     WCI  12
SALMON         SUNNY     18  12  79 CALM      30.62S
BOISE          SUNNY     36  32  85 CALM      30.64R
SPOKANE        FOG       29  28  96 NE5       30.60R VSB 1/4
$$

REGIONAL REPORTS...ALBERTA

CITY           SKY/WX    TMP DP  RH WIND       PRES   REMARKS
EDMONTON       MOSUNNY   30  16  55 W12       30.33R WCI  21
CALGARY        PTSUNNY   36   3  25 W12       30.37F WCI  27
LETHBRIDGE     MOSUNNY   39  12  33 W17G25    30.44S WCI  30
MEDICINE HAT   PTSUNNY   37  12  35 NW20      30.42S WCI  27
WATERTON GATE    N/A     34  10  37 SW17G25     N/A  WCI  23
MILK RIVER       N/A     39   9  28 NW17        N/A  WCI  30
$$

REGIONAL REPORTS...SASKATCHEWAN

CITY           SKY/WX    TMP DP  RH WIND       PRES   REMARKS
SWIFT CURRENT  SUNNY     32  19  59 NW25G39   30.25R WCI  19
REGINA         MOSUNNY   30  19  64 NW31G41   30.12R WCI  15
SASKATOON      SUNNY     28  19  69 NW24      30.19R WCI  14
CYPRESS HILLS    N/A     27  10  50 NW14G25     N/A  WCI  15
VAL MARIE        N/A     34  16  47 NW26G35     N/A  WCI  21
ROCKGLEN         N/A     28  19  69 NW31G43     N/A  WCI  12
ASSINIBOIA       N/A     28  18  64 W12         N/A  WCI  18
$$



USA.gov is the U.S. government's official web portal to all federal, state and local government web resources and services.